| time (UTC) | temp C | wind direction | speed KPH | gust KPH | rain 1hr cm | rain 24hr cm | rain mn cm | humidity % | barometer mb |
| 20260510201505 | 8 | 10 | 8.0 | 12.9 | 0.00 | 0.00 | 0.00 | 67 | 1015.1 |
| 20260510201005 | 9 | 10 | 6.4 | 12.9 | 0.00 | 0.00 | 0.00 | 67 | 1015.1 |
| 20260510200503 | 10 | 16 | 4.8 | 8.0 | 0.00 | 0.00 | 0.00 | 65 | 1015.1 |
| 20260510200005 | 10 | 19 | 4.8 | 6.4 | 0.00 | 0.00 | 0.00 | 65 | 1015.1 |
| 20260510195505 | 10 | 24 | 4.8 | 8.0 | 0.00 | 0.00 | 0.00 | 63 | 1015.1 |
| 20260510195003 | 10 | 18 | 4.8 | 9.7 | 0.00 | 0.00 | 0.00 | 62 | 1015.0 |
| 20260510193503 | 11 | 17 | 4.8 | 11.3 | 0.00 | 0.00 | 0.00 | 60 | 1014.9 |
| 20260510193005 | 11 | 17 | 4.8 | 11.3 | 0.00 | 0.00 | 0.00 | 58 | 1015.1 |
| 20260510192503 | 11 | 20 | 3.2 | 17.7 | 0.00 | 0.00 | 0.00 | 58 | 1014.9 |
| 20260510192003 | 12 | 24 | 3.2 | 17.7 | 0.00 | 0.00 | 0.00 | 60 | 1014.9 |
| 20260510190503 | 11 | 357 | 11.3 | 17.7 | 0.00 | 0.00 | 0.00 | 60 | 1015.1 |
| 20260510190005 | 11 | 356 | 11.3 | 17.7 | 0.00 | 0.00 | 0.00 | 59 | 1015.0 |
| 20260510185505 | 11 | 357 | 12.9 | 19.3 | 0.00 | 0.00 | 0.00 | 61 | 1015.0 |
| 20260510185005 | 11 | 356 | 12.9 | 19.3 | 0.00 | 0.00 | 0.00 | 60 | 1015.1 |
| 20260510184005 | 11 | 360 | 12.9 | 24.1 | 0.00 | 0.00 | 0.00 | 60 | 1014.9 |
| 20260510183505 | 12 | 3 | 12.9 | 19.3 | 0.00 | 0.00 | 0.00 | 59 | 1015.0 |
| 20260510183003 | 12 | 7 | 12.9 | 24.1 | 0.00 | 0.00 | 0.00 | 57 | 1015.0 |
| 20260510182503 | 12 | 8 | 11.3 | 24.1 | 0.00 | 0.00 | 0.00 | 58 | 1015.0 |
| 20260510182005 | 12 | 8 | 9.7 | 17.7 | 0.00 | 0.00 | 0.00 | 57 | 1014.9 |
| 20260510181503 | 13 | 10 | 9.7 | 17.7 | 0.00 | 0.00 | 0.00 | 56 | 1014.9 |
| 20260510181003 | 13 | 22 | 9.7 | 17.7 | 0.00 | 0.00 | 0.00 | 55 | 1014.9 |
| 20260510180503 | 13 | 25 | 8.0 | 20.9 | 0.00 | 0.00 | 0.00 | 53 | 1014.8 |
| 20260510180005 | 13 | 10 | 8.0 | 20.9 | 0.00 | 0.00 | 0.00 | 54 | 1014.9 |
| 20260510175505 | 14 | 14 | 9.7 | 20.9 | 0.00 | 0.00 | 0.00 | 54 | 1014.9 |
| 20260510175003 | 14 | 25 | 8.0 | 17.7 | 0.00 | 0.00 | 0.00 | 55 | 1014.8 |
| 20260510174003 | 14 | 52 | 8.0 | 20.9 | 0.00 | 0.00 | 0.00 | 52 | 1015.0 |
| 20260510173503 | 14 | 52 | 9.7 | 20.9 | 0.00 | 0.00 | 0.00 | 50 | 1015.1 |
| 20260510173005 | 14 | 57 | 8.0 | 25.7 | 0.00 | 0.00 | 0.00 | 50 | 1015.1 |
| 20260510172505 | 15 | 59 | 8.0 | 25.7 | 0.00 | 0.00 | 0.00 | 50 | 1015.1 |
| 20260510172003 | 15 | 51 | 8.0 | 22.5 | 0.00 | 0.00 | 0.00 | 49 | 1015.3 |
| 20260510171503 | 15 | 39 | 8.0 | 19.3 | 0.00 | 0.00 | 0.00 | 54 | 1015.3 |
| 20260510171005 | 15 | 48 | 6.4 | 16.1 | 0.00 | 0.00 | 0.00 | 52 | 1015.3 |
| 20260510170503 | 15 | 44 | 4.8 | 16.1 | 0.00 | 0.00 | 0.00 | 52 | 1015.4 |
| 20260510170005 | 14 | 16 | 8.0 | 19.3 | 0.00 | 0.00 | 0.00 | 55 | 1015.5 |
| 20260510165505 | 13 | 6 | 9.7 | 19.3 | 0.00 | 0.00 | 0.00 | 59 | 1015.6 |
| 20260510165003 | 13 | 9 | 8.0 | 20.9 | 0.00 | 0.00 | 0.00 | 59 | 1015.6 |
| 20260510164505 | 13 | 18 | 9.7 | 20.9 | 0.00 | 0.00 | 0.00 | 56 | 1015.7 |
| 20260510163503 | 14 | 51 | 6.4 | 16.1 | 0.00 | 0.00 | 0.00 | 53 | 1015.8 |
| 20260510163005 | 14 | 43 | 6.4 | 16.1 | 0.00 | 0.00 | 0.00 | 54 | 1015.9 |
| 20260510162505 | 14 | 30 | 6.4 | 17.7 | 0.00 | 0.00 | 0.00 | 54 | 1015.8 |
| 20260510162003 | 13 | 39 | 8.0 | 17.7 | 0.00 | 0.00 | 0.00 | 58 | 1015.9 |
| 20260510161505 | 13 | 58 | 8.0 | 16.1 | 0.00 | 0.00 | 0.00 | 55 | 1015.9 |
| 20260510161005 | 14 | 63 | 8.0 | 17.7 | 0.00 | 0.00 | 0.00 | 56 | 1016.0 |
| 20260510160503 | 14 | 40 | 6.4 | 17.7 | 0.00 | 0.00 | 0.00 | 58 | 1016.0 |
| 20260510155505 | 13 | 27 | 8.0 | 19.3 | 0.00 | 0.00 | 0.00 | 59 | 1016.1 |
| 20260510155003 | 13 | 26 | 9.7 | 19.3 | 0.00 | 0.00 | 0.00 | 57 | 1016.1 |
| 20260510154003 | 13 | 26 | 8.0 | 19.3 | 0.00 | 0.00 | 0.00 | 57 | 1016.2 |
| 20260510153503 | 13 | 25 | 6.4 | 17.7 | 0.00 | 0.00 | 0.00 | 57 | 1016.2 |
| 20260510153005 | 13 | 18 | 6.4 | 17.7 | 0.00 | 0.00 | 0.00 | 62 | 1016.3 |
| 20260510152503 | 13 | 34 | 6.4 | 14.5 | 0.00 | 0.00 | 0.00 | 59 | 1016.4 |
| 20260510151503 | 13 | 41 | 6.4 | 16.1 | 0.00 | 0.00 | 0.00 | 60 | 1016.4 |
| 20260510145503 | 13 | 47 | 8.0 | 17.7 | 0.00 | 0.00 | 0.00 | 58 | 1016.8 |
| 20260510145005 | 13 | 55 | 8.0 | 17.7 | 0.00 | 0.00 | 0.00 | 59 | 1016.8 |
| 20260510144505 | 13 | 51 | 6.4 | 17.7 | 0.00 | 0.00 | 0.00 | 60 | 1016.8 |
| 20260510143003 | 13 | 35 | 6.4 | 20.9 | 0.00 | 0.00 | 0.00 | 62 | 1017.1 |
| 20260510142003 | 13 | 25 | 8.0 | 20.9 | 0.00 | 0.00 | 0.00 | 62 | 1017.1 |
| 20260510141505 | 13 | 33 | 8.0 | 22.5 | 0.00 | 0.00 | 0.00 | 65 | 1017.1 |
| 20260510140005 | 13 | 30 | 9.7 | 22.5 | 0.00 | 0.00 | 0.00 | 64 | 1017.3 |
| 20260510135005 | 13 | 24 | 9.7 | 20.9 | 0.00 | 0.00 | 0.00 | 66 | 1017.3 |
| 20260510134505 | 13 | 26 | 11.3 | 22.5 | 0.00 | 0.00 | 0.00 | 64 | 1017.2 |
| 20260510134003 | 13 | 41 | 9.7 | 22.5 | 0.00 | 0.00 | 0.00 | 65 | 1017.3 |
| 20260510133505 | 13 | 52 | 11.3 | 22.5 | 0.00 | 0.00 | 0.00 | 65 | 1017.4 |
| 20260510132505 | 13 | 63 | 8.0 | 24.1 | 0.00 | 0.00 | 0.00 | 66 | 1017.4 |
| 20260510132005 | 12 | 45 | 8.0 | 22.5 | 0.00 | 0.00 | 0.00 | 67 | 1017.5 |
| 20260510131503 | 12 | 32 | 9.7 | 22.5 | 0.00 | 0.00 | 0.00 | 67 | 1017.7 |
| 20260510131005 | 12 | 34 | 9.7 | 22.5 | 0.00 | 0.00 | 0.00 | 67 | 1017.8 |
| 20260510130505 | 12 | 50 | 9.7 | 19.3 | 0.00 | 0.00 | 0.00 | 69 | 1017.7 |
| 20260510125005 | 12 | 55 | 8.0 | 19.3 | 0.00 | 0.00 | 0.00 | 69 | 1017.8 |
| 20260510124503 | 12 | 49 | 8.0 | 24.1 | 0.00 | 0.00 | 0.00 | 69 | 1018.1 |
| 20260510124005 | 12 | 41 | 9.7 | 24.1 | 0.00 | 0.00 | 0.00 | 69 | 1018.0 |
| 20260510123503 | 12 | 31 | 9.7 | 22.5 | 0.00 | 0.00 | 0.00 | 70 | 1018.0 |
| 20260510122505 | 12 | 21 | 11.3 | 24.1 | 0.00 | 0.00 | 0.00 | 71 | 1018.1 |
| 20260510121503 | 11 | 57 | 8.0 | 20.9 | 0.00 | 0.00 | 0.00 | 71 | 1018.3 |
| 20260510121003 | 11 | 54 | 11.3 | 22.5 | 0.00 | 0.00 | 0.00 | 70 | 1018.4 |
| 20260510120505 | 11 | 41 | 9.7 | 22.5 | 0.00 | 0.00 | 0.00 | 72 | 1018.4 |
| 20260510120005 | 11 | 49 | 9.7 | 20.9 | 0.00 | 0.00 | 0.00 | 72 | 1018.5 |
| 20260510115003 | 11 | 38 | 8.0 | 22.5 | 0.00 | 0.00 | 0.00 | 73 | 1018.6 |
| 20260510114503 | 11 | 48 | 8.0 | 22.5 | 0.00 | 0.00 | 0.00 | 74 | 1018.7 |
| 20260510114005 | 11 | 53 | 8.0 | 25.7 | 0.00 | 0.00 | 0.00 | 73 | 1018.8 |
| 20260510113503 | 11 | 51 | 9.7 | 25.7 | 0.00 | 0.00 | 0.00 | 73 | 1018.8 |
| 20260510112007 | 11 | 41 | 9.7 | 17.7 | 0.00 | 0.00 | 0.00 | 75 | 1018.9 |
| 20260510111503 | 11 | 33 | 9.7 | 17.7 | 0.00 | 0.00 | 0.00 | 76 | 1019.0 |
| 20260510110505 | 10 | 20 | 11.3 | 20.9 | 0.00 | 0.00 | 0.00 | 76 | 1019.0 |
| 20260510105005 | 10 | 45 | 11.3 | 24.1 | 0.00 | 0.00 | 0.00 | 76 | 1019.1 |
| 20260510104503 | 10 | 41 | 9.7 | 24.1 | 0.00 | 0.00 | 0.00 | 76 | 1019.2 |
| 20260510103505 | 10 | 45 | 8.0 | 17.7 | 0.00 | 0.00 | 0.00 | 76 | 1019.3 |
| 20260510103003 | 10 | 52 | 8.0 | 20.9 | 0.00 | 0.00 | 0.00 | 78 | 1019.4 |
| 20260510102508 | 10 | 37 | 6.4 | 20.9 | 0.00 | 0.00 | 0.00 | 78 | 1019.3 |
| 20260510102003 | 10 | 24 | 8.0 | 20.9 | 0.00 | 0.00 | 0.00 | 78 | 1019.4 |
| 20260510101505 | 10 | 33 | 9.7 | 20.9 | 0.00 | 0.00 | 0.00 | 78 | 1019.3 |
| 20260510101003 | 10 | 29 | 9.7 | 24.1 | 0.00 | 0.00 | 0.00 | 79 | 1019.4 |
| 20260510100503 | 10 | 25 | 11.3 | 24.1 | 0.00 | 0.00 | 0.00 | 79 | 1019.4 |
| 20260510100004 | 10 | 24 | 11.3 | 24.1 | 0.00 | 0.00 | 0.00 | 80 | 1019.4 |
| 20260510095505 | 10 | 27 | 9.7 | 24.1 | 0.00 | 0.00 | 0.00 | 80 | 1019.3 |
| 20260510094505 | 10 | 35 | 8.0 | 19.3 | 0.00 | 0.00 | 0.00 | 81 | 1019.4 |
| 20260510093505 | 9 | 33 | 9.7 | 27.4 | 0.00 | 0.00 | 0.00 | 81 | 1019.5 |
| 20260510093003 | 9 | 26 | 9.7 | 27.4 | 0.00 | 0.00 | 0.00 | 82 | 1019.5 |
| 20260510092503 | 9 | 25 | 6.4 | 19.3 | 0.00 | 0.00 | 0.00 | 82 | 1019.5 |
| 20260510092005 | 9 | 34 | 6.4 | 20.9 | 0.00 | 0.00 | 0.00 | 83 | 1019.6 |
| 20260510091005 | 9 | 27 | 9.7 | 20.9 | 0.00 | 0.00 | 0.00 | 83 | 1019.7 |
| 20260510090503 | 9 | 13 | 9.7 | 20.9 | 0.00 | 0.00 | 0.00 | 83 | 1019.7 |
| 20260510090003 | 9 | 21 | 8.0 | 19.3 | 0.00 | 0.00 | 0.00 | 83 | 1019.8 |
| 20260510085505 | 9 | 41 | 8.0 | 19.3 | 0.00 | 0.00 | 0.00 | 83 | 1019.7 |
| 20260510084505 | 8 | 23 | 11.3 | 20.9 | 0.00 | 0.00 | 0.00 | 84 | 1019.8 |
| 20260510084005 | 8 | 26 | 9.7 | 20.9 | 0.00 | 0.00 | 0.00 | 84 | 1019.7 |
| 20260510083505 | 8 | 33 | 6.4 | 19.3 | 0.00 | 0.00 | 0.00 | 85 | 1019.7 |
| 20260510083003 | 8 | 35 | 4.8 | 14.5 | 0.00 | 0.00 | 0.00 | 85 | 1019.8 |
| 20260510082503 | 8 | 33 | 6.4 | 12.9 | 0.00 | 0.00 | 0.00 | 85 | 1019.8 |
| 20260510081005 | 8 | 30 | 6.4 | 14.5 | 0.00 | 0.00 | 0.00 | 85 | 1019.8 |
| 20260510080505 | 8 | 39 | 6.4 | 20.9 | 0.00 | 0.00 | 0.00 | 85 | 1019.9 |
| 20260510075505 | 8 | 50 | 9.7 | 22.5 | 0.00 | 0.00 | 0.00 | 85 | 1019.8 |
| 20260510075005 | 8 | 41 | 9.7 | 22.5 | 0.00 | 0.00 | 0.00 | 85 | 1019.9 |
| 20260510074503 | 8 | 33 | 6.4 | 22.5 | 0.00 | 0.00 | 0.00 | 85 | 1019.8 |
| 20260510074003 | 8 | 40 | 6.4 | 20.9 | 0.00 | 0.00 | 0.00 | 86 | 1019.8 |
| 20260510073505 | 8 | 46 | 8.0 | 22.5 | 0.00 | 0.00 | 0.00 | 86 | 1019.7 |
| 20260510072003 | 8 | 33 | 8.0 | 17.7 | 0.00 | 0.03 | 0.00 | 86 | 1019.7 |
| 20260510071505 | 8 | 37 | 8.0 | 19.3 | 0.00 | 0.03 | 0.00 | 86 | 1019.7 |
| 20260510071003 | 8 | 42 | 8.0 | 19.3 | 0.00 | 0.03 | 0.00 | 86 | 1019.7 |
| 20260510070505 | 8 | 38 | 9.7 | 27.4 | 0.00 | 0.03 | 0.00 | 86 | 1019.6 |
| 20260510070005 | 8 | 39 | 11.3 | 27.4 | 0.00 | 0.03 | 0.00 | 86 | 1019.6 |
| 20260510065503 | 8 | 44 | 9.7 | 24.1 | 0.00 | 0.03 | 0.00 | 87 | 1019.6 |
| 20260510065005 | 8 | 48 | 8.0 | 24.1 | 0.00 | 0.03 | 0.00 | 87 | 1019.5 |
| 20260510064505 | 8 | 47 | 8.0 | 20.9 | 0.00 | 0.03 | 0.00 | 87 | 1019.5 |
| 20260510064005 | 8 | 43 | 8.0 | 20.9 | 0.00 | 0.03 | 0.00 | 87 | 1019.6 |
| 20260510063505 | 8 | 37 | 6.4 | 20.9 | 0.00 | 0.03 | 0.00 | 87 | 1019.5 |
| 20260510062503 | 8 | 26 | 8.0 | 22.5 | 0.00 | 0.03 | 0.00 | 88 | 1019.4 |
| 20260510061005 | 8 | 36 | 9.7 | 27.4 | 0.00 | 0.03 | 0.00 | 88 | 1019.5 |
| 20260510060505 | 8 | 28 | 8.0 | 22.5 | 0.00 | 0.03 | 0.00 | 88 | 1019.5 |
| 20260510060003 | 8 | 43 | 8.0 | 19.3 | 0.00 | 0.03 | 0.00 | 88 | 1019.5 |
| 20260510055503 | 8 | 43 | 8.0 | 19.3 | 0.00 | 0.03 | 0.00 | 89 | 1019.3 |
| 20260510054005 | 8 | 42 | 8.0 | 24.1 | 0.00 | 0.03 | 0.00 | 89 | 1019.2 |
| 20260510053503 | 8 | 39 | 8.0 | 20.9 | 0.00 | 0.03 | 0.00 | 89 | 1019.2 |
| 20260510053003 | 8 | 36 | 8.0 | 19.3 | 0.00 | 0.03 | 0.00 | 89 | 1019.1 |
| 20260510052003 | 8 | 40 | 8.0 | 20.9 | 0.00 | 0.03 | 0.00 | 89 | 1019.3 |
| 20260510051505 | 8 | 36 | 8.0 | 20.9 | 0.00 | 0.03 | 0.00 | 89 | 1019.3 |
| 20260510050503 | 8 | 32 | 8.0 | 17.7 | 0.00 | 0.03 | 0.00 | 89 | 1019.3 |
| 20260510045503 | 8 | 19 | 11.3 | 22.5 | 0.00 | 0.03 | 0.00 | 88 | 1019.4 |
| 20260510043503 | 8 | 22 | 8.0 | 20.9 | 0.00 | 0.03 | 0.00 | 88 | 1019.5 |
| 20260510043005 | 8 | 24 | 8.0 | 20.9 | 0.00 | 0.03 | 0.00 | 88 | 1019.4 |
| 20260510042503 | 8 | 28 | 8.0 | 20.9 | 0.00 | 0.03 | 0.00 | 88 | 1019.5 |
| 20260510042003 | 8 | 30 | 6.4 | 19.3 | 0.00 | 0.03 | 0.00 | 88 | 1019.5 |
| 20260510040506 | 8 | 37 | 8.0 | 19.3 | 0.00 | 0.03 | 0.00 | 88 | 1019.6 |
| 20260510040003 | 8 | 36 | 8.0 | 19.3 | 0.00 | 0.03 | 0.00 | 88 | 1019.6 |
| 20260510035003 | 8 | 30 | 8.0 | 19.3 | 0.00 | 0.03 | 0.00 | 88 | 1019.6 |
| 20260510034505 | 8 | 37 | 8.0 | 20.9 | 0.00 | 0.03 | 0.00 | 88 | 1019.7 |
| 20260510034003 | 8 | 34 | 6.4 | 20.9 | 0.00 | 0.03 | 0.00 | 88 | 1019.7 |
| 20260510033503 | 8 | 15 | 4.8 | 12.9 | 0.00 | 0.03 | 0.00 | 89 | 1019.7 |
| 20260510033005 | 8 | 25 | 6.4 | 19.3 | 0.00 | 0.03 | 0.00 | 88 | 1019.7 |
| 20260510032503 | 8 | 32 | 6.4 | 19.3 | 0.00 | 0.03 | 0.00 | 89 | 1019.7 |
| 20260510031503 | 8 | 18 | 6.4 | 19.3 | 0.00 | 0.03 | 0.00 | 89 | 1019.8 |
| 20260510030004 | 8 | 8 | 8.0 | 17.7 | 0.00 | 0.03 | 0.00 | 89 | 1019.8 |
| 20260510025503 | 8 | 1 | 8.0 | 17.7 | 0.00 | 0.03 | 0.00 | 89 | 1019.8 |
| 20260510025005 | 9 | 2 | 9.7 | 20.9 | 0.00 | 0.03 | 0.00 | 89 | 1019.8 |
| 20260510024503 | 9 | 8 | 11.3 | 20.9 | 0.00 | 0.03 | 0.00 | 89 | 1019.8 |
| 20260510024004 | 9 | 7 | 11.3 | 17.7 | 0.00 | 0.03 | 0.00 | 89 | 1019.8 |
| 20260510023005 | 9 | 359 | 9.7 | 19.3 | 0.00 | 0.03 | 0.00 | 88 | 1019.8 |
| 20260510022503 | 9 | 4 | 11.3 | 20.9 | 0.00 | 0.03 | 0.00 | 88 | 1019.8 |
| 20260510022003 | 9 | 6 | 12.9 | 24.1 | 0.00 | 0.03 | 0.00 | 88 | 1019.8 |
| 20260510021503 | 9 | 9 | 12.9 | 24.1 | 0.00 | 0.03 | 0.00 | 88 | 1019.7 |
| 20260510021005 | 9 | 6 | 14.5 | 27.4 | 0.00 | 0.03 | 0.00 | 88 | 1019.8 |
| 20260510020505 | 9 | 5 | 12.9 | 27.4 | 0.00 | 0.03 | 0.00 | 88 | 1019.7 |
| 20260510020005 | 10 | 12 | 11.3 | 19.3 | 0.00 | 0.03 | 0.00 | 88 | 1019.7 |
| 20260510015003 | 10 | 16 | 6.4 | 16.1 | 0.00 | 0.03 | 0.00 | 88 | 1019.7 |
| 20260510014503 | 10 | 17 | 6.4 | 16.1 | 0.00 | 0.03 | 0.00 | 87 | 1019.8 |
| 20260510014005 | 10 | 10 | 4.8 | 14.5 | 0.00 | 0.03 | 0.00 | 87 | 1019.9 |
| 20260510013503 | 9 | 15 | 3.2 | 8.0 | 0.00 | 0.03 | 0.00 | 87 | 1019.8 |
| 20260510012003 | 10 | 25 | 4.8 | 14.5 | 0.00 | 0.03 | 0.00 | 86 | 1019.9 |
| 20260510011503 | 10 | 26 | 3.2 | 12.9 | 0.00 | 0.03 | 0.00 | 86 | 1019.9 |
| 20260510011003 | 10 | 25 | 3.2 | 8.0 | 0.00 | 0.03 | 0.00 | 86 | 1019.9 |
| 20260510010505 | 10 | 27 | 4.8 | 14.5 | 0.00 | 0.03 | 0.00 | 86 | 1020.0 |
| 20260510005005 | 10 | 20 | 4.8 | 11.3 | 0.00 | 0.03 | 0.00 | 86 | 1020.0 |
| 20260510004504 | 10 | 18 | 4.8 | 9.7 | 0.00 | 0.03 | 0.00 | 86 | 1019.9 |
| 20260510003004 | 10 | 15 | 8.0 | 17.7 | 0.00 | 0.03 | 0.00 | 85 | 1019.9 |
| 20260510002504 | 10 | 13 | 8.0 | 17.7 | 0.00 | 0.03 | 0.00 | 85 | 1019.8 |
| 20260510002005 | 10 | 9 | 6.4 | 17.7 | 0.00 | 0.03 | 0.00 | 85 | 1019.8 |
| 20260510001503 | 10 | 13 | 4.8 | 16.1 | 0.00 | 0.03 | 0.00 | 85 | 1019.8 |
| 20260510000505 | 10 | 11 | 8.0 | 14.5 | 0.00 | 0.03 | 0.00 | 85 | 1019.8 |
| 20260509235503 | 10 | 11 | 8.0 | 14.5 | 0.00 | 0.03 | 0.00 | 84 | 1019.8 |
| 20260509235005 | 10 | 3 | 6.4 | 14.5 | 0.00 | 0.03 | 0.00 | 84 | 1019.7 |
| 20260509234505 | 10 | 7 | 4.8 | 12.9 | 0.00 | 0.03 | 0.00 | 84 | 1019.7 |
| 20260509230004 | 11 | 1 | 6.4 | 12.9 | 0.00 | 0.03 | 0.00 | 83 | 1019.6 |
| 20260509225003 | 11 | 8 | 4.8 | 16.1 | 0.00 | 0.03 | 0.03 | 83 | 1019.5 |
| 20260509224505 | 11 | 17 | 6.4 | 19.3 | 0.00 | 0.03 | 0.03 | 83 | 1019.3 |
| 20260509223505 | 11 | 40 | 6.4 | 19.3 | 0.00 | 0.03 | 0.03 | 83 | 1019.3 |
| 20260509223003 | 11 | 34 | 8.0 | 19.3 | 0.00 | 0.03 | 0.03 | 83 | 1019.2 |
| 20260509222503 | 11 | 26 | 8.0 | 19.3 | 0.00 | 0.03 | 0.03 | 83 | 1019.3 |
| 20260509222003 | 11 | 34 | 9.7 | 22.5 | 0.00 | 0.03 | 0.03 | 83 | 1019.3 |
| 20260509221505 | 11 | 37 | 9.7 | 22.5 | 0.00 | 0.03 | 0.03 | 82 | 1019.1 |
| 20260509221005 | 11 | 36 | 8.0 | 20.9 | 0.00 | 0.03 | 0.03 | 83 | 1019.1 |
| 20260509220503 | 11 | 26 | 9.7 | 20.9 | 0.00 | 0.03 | 0.03 | 82 | 1019.3 |
| 20260509220003 | 11 | 23 | 9.7 | 19.3 | 0.00 | 0.03 | 0.03 | 82 | 1019.2 |
| 20260509215505 | 11 | 29 | 11.3 | 19.3 | 0.00 | 0.03 | 0.03 | 83 | 1019.1 |
| 20260509215003 | 11 | 31 | 11.3 | 20.9 | 0.00 | 0.03 | 0.03 | 82 | 1019.1 |
| 20260509214503 | 12 | 25 | 11.3 | 22.5 | 0.00 | 0.05 | 0.03 | 82 | 1019.1 |
| 20260509214003 | 12 | 24 | 11.3 | 22.5 | 0.00 | 0.08 | 0.03 | 82 | 1019.0 |
| 20260509213505 | 12 | 29 | 8.0 | 24.1 | 0.00 | 0.08 | 0.03 | 82 | 1019.1 |
| 20260509210505 | 12 | 27 | 14.5 | 24.1 | 0.00 | 0.23 | 0.03 | 80 | 1018.6 |
| 20260509210005 | 12 | 27 | 12.9 | 30.6 | 0.00 | 0.23 | 0.03 | 79 | 1018.7 |
| 20260509204503 | 13 | 27 | 12.9 | 29.0 | 0.00 | 0.23 | 0.03 | 79 | 1018.6 |
| 20260509202505 | 13 | 12 | 14.5 | 29.0 | 0.00 | 0.23 | 0.03 | 80 | 1018.6 |